{"data":{"norad_id":61672,"epoch":"2026-09-21T06:04:38.442144Z","epoch_age_seconds":126908,"freshness":"FRESH","line1":"1 61672U 24193M   26264.25322271  .00022404  00000+0  73325-3 0  9999","line2":"2 61672  53.1573 261.5438 0002153 107.0332 253.0905 15.31624014106484","mean_motion":15.31624014,"eccentricity":0.0002153,"inclination_deg":53.1573,"raan_deg":261.5438,"arg_perigee_deg":107.0332,"mean_anomaly_deg":253.0905,"bstar":0.00073325,"rev_number":10648,"period_min":94.01785208625,"perigee_km":469.49190291542,"apogee_km":472.44112688894,"semimajor_km":6849.1035149022,"source":"CELESTRAK","updated_at":"2026-09-22T09:00:49.402070Z"}}